When you browse on this site, cookies collect data to enhance your experience and personalize the content and advertising you see.
Visit our Privacy Policy to learn more. By continuing to use the site, you agree to this use of cookies and data.
  • In Austria
  • List of Countries
  • For 7 days
  • Water Temperature
  • Satellite Maps
  • Weather Map
  • News
  • Weather Widgets
  • user-avatar
    Login

    Hourly Weather Jalalabad

    Today, 20 April, Saturday

    Time Temperature Precipitation Wind Pressure Humidity
    00:00 +22°C° 0 mm 0 mps 709 mmHg 36%
    01:00 +24°C° 0 mm 1 mps 708 mmHg 36%
    02:00 +23°C° 0 mm 1 mps 708 mmHg 36%
    03:00 +23°C° 0 mm 1 mps 708 mmHg 37%
    04:00 +22°C° 0 mm 1 mps 708 mmHg 39%
    05:00 +19°C° 0 mm 0 mps 707 mmHg 42%
    06:00 +21°C° 0 mm 0 mps 708 mmHg 37%
    07:00 +24°C° 0 mm 1 mps 708 mmHg 32%
    08:00 +25°C° 0 mm 1 mps 708 mmHg 27%
    09:00 +26°C° 0 mm 1 mps 708 mmHg 25%
    10:00 +27°C° 0 mm 1 mps 707 mmHg 23%
    11:00 +29°C° 0 mm 2 mps 707 mmHg 22%
    12:00 +30°C° 0 mm 2 mps 707 mmHg 21%
    13:00 +31°C° 0 mm 2 mps 707 mmHg 20%
    14:00 +32°C° 0 mm 2 mps 707 mmHg 19%
    15:00 +32°C° 0 mm 2 mps 707 mmHg 19%
    16:00 +33°C° 0 mm 3 mps 707 mmHg 20%
    17:00 +31°C° 0 mm 3 mps 707 mmHg 20%
    18:00 +30°C° 0 mm 2 mps 707 mmHg 25%
    19:00 +29°C° 0 mm 1 mps 707 mmHg 31%
    20:00 +25°C° 0 mm 0 mps 707 mmHg 37%
    21:00 +25°C° 0 mm 0 mps 708 mmHg 37%
    22:00 +24°C° 0 mm 0 mps 708 mmHg 38%
    23:00 +23°C° 0 mm 0 mps 708 mmHg 39%

    Tomorrow, 21 April, Sunday

    Time Temperature Precipitation Wind Pressure Humidity
    00:00 +25°C° 0 mm 1 mps 708 mmHg 40%
    01:00 +24°C° 0 mm 1 mps 708 mmHg 40%
    02:00 +24°C° 0 mm 1 mps 707 mmHg 41%
    03:00 +23°C° 0 mm 1 mps 707 mmHg 41%
    04:00 +23°C° 0 mm 1 mps 707 mmHg 42%
    05:00 +22°C° 0 mm 1 mps 707 mmHg 42%
    06:00 +24°C° 0 mm 1 mps 707 mmHg 38%
    07:00 +25°C° 0 mm 1 mps 707 mmHg 33%
    08:00 +26°C° 0 mm 1 mps 708 mmHg 29%
    09:00 +27°C° 0 mm 1 mps 708 mmHg 27%
    10:00 +28°C° 0 mm 1 mps 708 mmHg 25%
    11:00 +30°C° 0 mm 2 mps 708 mmHg 23%
    12:00 +30°C° 0 mm 2 mps 708 mmHg 22%
    13:00 +31°C° 0 mm 2 mps 707 mmHg 21%
    14:00 +32°C° 0 mm 2 mps 707 mmHg 20%
    15:00 +32°C° 0 mm 2 mps 707 mmHg 21%
    16:00 +32°C° 0 mm 2 mps 707 mmHg 22%
    17:00 +32°C° 0 mm 2 mps 706 mmHg 22%
    18:00 +31°C° 0 mm 1 mps 707 mmHg 27%
    19:00 +29°C° 0 mm 1 mps 707 mmHg 32%
    20:00 +26°C° 0 mm 0 mps 707 mmHg 37%
    21:00 +26°C° 0 mm 0 mps 707 mmHg 37%
    22:00 +27°C° 0 mm 1 mps 708 mmHg 38%
    23:00 +27°C° 0 mm 1 mps 708 mmHg 38%

    Day after tomorrow, 22 April, Monday

    Time Temperature Precipitation Wind Pressure Humidity
    00:00 +26°C° 0 mm 1 mps 708 mmHg 38%
    01:00 +26°C° 0 mm 1 mps 708 mmHg 39%
    02:00 +25°C° 0 mm 1 mps 708 mmHg 39%
    03:00 +25°C° 0 mm 1 mps 707 mmHg 39%
    04:00 +24°C° 0 mm 1 mps 707 mmHg 39%
    05:00 +24°C° 0 mm 1 mps 707 mmHg 39%
    06:00 +25°C° 0 mm 1 mps 708 mmHg 35%
    07:00 +26°C° 0 mm 1 mps 708 mmHg 31%
    08:00 +28°C° 0 mm 1 mps 708 mmHg 26%
    09:00 +29°C° 0 mm 1 mps 708 mmHg 24%
    10:00 +30°C° 0 mm 1 mps 709 mmHg 22%
    11:00 +31°C° 0 mm 2 mps 709 mmHg 20%
    12:00 +32°C° 0 mm 2 mps 709 mmHg 19%
    13:00 +34°C° 0 mm 2 mps 708 mmHg 18%
    14:00 +35°C° 0 mm 2 mps 708 mmHg 16%
    15:00 +35°C° 0 mm 2 mps 708 mmHg 16%
    16:00 +35°C° 0 mm 2 mps 708 mmHg 17%
    17:00 +35°C° 0 mm 3 mps 708 mmHg 17%
    18:00 +32°C° 0 mm 2 mps 708 mmHg 21%
    19:00 +31°C° 0 mm 1 mps 708 mmHg 26%
    20:00 +29°C° 0 mm 1 mps 709 mmHg 31%
    21:00 +29°C° 0 mm 1 mps 709 mmHg 31%
    22:00 +28°C° 0 mm 1 mps 709 mmHg 31%
    23:00 +28°C° 0 mm 1 mps 710 mmHg 32%

    23 April, Tuesday

    Time Temperature Precipitation Wind Pressure Humidity
    00:00 +27°C° 0 mm 1 mps 709 mmHg 32%
    01:00 +27°C° 0 mm 1 mps 709 mmHg 31%
    02:00 +26°C° 0 mm 1 mps 709 mmHg 31%
    03:00 +26°C° 0 mm 1 mps 709 mmHg 30%
    04:00 +25°C° 0 mm 1 mps 708 mmHg 30%
    05:00 +25°C° 0 mm 1 mps 708 mmHg 29%
    06:00 +26°C° 0 mm 1 mps 708 mmHg 26%
    07:00 +28°C° 0 mm 1 mps 709 mmHg 22%
    08:00 +29°C° 0 mm 1 mps 709 mmHg 19%
    09:00 +30°C° 0 mm 1 mps 709 mmHg 18%
    10:00 +31°C° 0 mm 2 mps 710 mmHg 17%
    11:00 +34°C° 0 mm 2 mps 710 mmHg 16%
    12:00 +34°C° 0 mm 2 mps 710 mmHg 15%
    13:00 +35°C° 0 mm 2 mps 709 mmHg 14%
    14:00 +35°C° 0 mm 2 mps 709 mmHg 14%
    15:00 +35°C° 0 mm 2 mps 709 mmHg 14%
    16:00 +35°C° 0 mm 2 mps 709 mmHg 15%
    17:00 +33°C° 0 mm 1 mps 708 mmHg 16%
    18:00 +32°C° 0.1 mm 1 mps 709 mmHg 19%
    19:00 +31°C° 0.1 mm 1 mps 709 mmHg 23%
    20:00 +30°C° 0.1 mm 1 mps 709 mmHg 27%
    21:00 +29°C° 0 mm 1 mps 710 mmHg 27%
    22:00 +29°C° 0 mm 1 mps 710 mmHg 27%
    23:00 +28°C° 0 mm 2 mps 710 mmHg 28%

    24 April, Wednesday

    Time Temperature Precipitation Wind Pressure Humidity
    00:00 +28°C° 0 mm 2 mps 710 mmHg 29%
    01:00 +27°C° 0 mm 2 mps 709 mmHg 31%
    02:00 +27°C° 0 mm 2 mps 709 mmHg 32%
    03:00 +26°C° 0 mm 2 mps 709 mmHg 34%
    04:00 +26°C° 0 mm 2 mps 709 mmHg 35%
    05:00 +25°C° 0 mm 2 mps 709 mmHg 36%
    06:00 +26°C° 0.1 mm 2 mps 709 mmHg 36%
    07:00 +27°C° 0.1 mm 3 mps 710 mmHg 36%
    08:00 +27°C° 0.1 mm 3 mps 710 mmHg 36%
    09:00 +28°C° 0.1 mm 3 mps 710 mmHg 35%
    10:00 +28°C° 0.1 mm 3 mps 710 mmHg 33%
    11:00 +29°C° 0.1 mm 3 mps 710 mmHg 31%
    12:00 +29°C° 0.1 mm 3 mps 710 mmHg 31%
    13:00 +30°C° 0.1 mm 3 mps 710 mmHg 31%
    14:00 +30°C° 0.1 mm 3 mps 709 mmHg 32%
    15:00 +29°C° 1.5 mm 3 mps 709 mmHg 38%
    16:00 +27°C° 1.5 mm 3 mps 709 mmHg 45%
    17:00 +26°C° 1.5 mm 3 mps 709 mmHg 52%
    18:00 +25°C° 0 mm 2 mps 709 mmHg 54%
    19:00 +25°C° 0 mm 1 mps 709 mmHg 56%
    20:00 +22°C° 0 mm 0 mps 710 mmHg 58%
    21:00 +24°C° 0 mm 1 mps 710 mmHg 58%
    22:00 +24°C° 0 mm 1 mps 710 mmHg 58%
    23:00 +23°C° 0 mm 1 mps 710 mmHg 57%

    25 April, Thursday

    Time Temperature Precipitation Wind Pressure Humidity
    00:00 +23°C° 0 mm 1 mps 710 mmHg 57%
    01:00 +23°C° 0 mm 1 mps 709 mmHg 56%
    02:00 +21°C° 0 mm 2 mps 709 mmHg 55%
    03:00 +21°C° 0 mm 2 mps 709 mmHg 54%
    04:00 +21°C° 0 mm 2 mps 709 mmHg 53%
    05:00 +21°C° 0 mm 2 mps 709 mmHg 52%
    06:00 +23°C° 0 mm 2 mps 709 mmHg 47%
    07:00 +24°C° 0 mm 2 mps 710 mmHg 42%
    08:00 +26°C° 0 mm 2 mps 710 mmHg 38%
    09:00 +27°C° 0 mm 2 mps 710 mmHg 37%
    10:00 +28°C° 0 mm 2 mps 710 mmHg 36%
    11:00 +29°C° 0 mm 3 mps 710 mmHg 36%
    12:00 +30°C° 0 mm 3 mps 710 mmHg 32%
    13:00 +31°C° 0 mm 3 mps 710 mmHg 28%
    14:00 +33°C° 0 mm 3 mps 709 mmHg 25%
    15:00 +32°C° 0 mm 2 mps 709 mmHg 24%
    16:00 +32°C° 0 mm 2 mps 709 mmHg 23%
    17:00 +32°C° 0 mm 2 mps 708 mmHg 22%
    18:00 +31°C° 0 mm 2 mps 709 mmHg 25%
    19:00 +30°C° 0 mm 2 mps 709 mmHg 28%
    20:00 +28°C° 0 mm 2 mps 709 mmHg 32%
    21:00 +28°C° 0 mm 2 mps 710 mmHg 32%
    22:00 +27°C° 0 mm 2 mps 710 mmHg 32%
    23:00 +27°C° 0 mm 2 mps 710 mmHg 32%
    Show more